Volver al catálogo

TITAN 3C TRANSTAGE DEB

LostHEO
NORAD 28820·DEBRIS·🇺🇸 United States

Lanzado Dec 21, 1965 desde Cape Canaveral Space Force Station

Loading…

Próximos Pases (próximas 24 horas)

TLE

ObsoletoSource: Space-Track

Época: Nov 8, 2025, 09:47 UTC

1 28820U 65108CH  25312.40773428  .00000518  00000-0  21085-2 0  9990
2 28820  26.5829 259.9790 6739192 180.9282 176.6448  2.84904157219257

Sigue TITAN 3C TRANSTAGE DEB en tiempo real con AllMySat

Download on the App Store